Location: Conjunto Santa Maria
(19.9513°S, 43.9599°W)
Time: 13:13:04
(UTC+00:00)

CZ-4 R/B - Pass Details

Date: 21 January 2021
Orbit: 531 x 599 km, 97.7° (Epoch: 03 March)

Event Time Altitude Azimuth Distance (km) Brightness Sun altitude
Rises 22:20:14 0° 174° (S) 2,862 5.2 -9.3°
Reaches altitude 10° 22:22:26 10° 177° (S) 1,955 4.4 -9.8°
Maximum altitude 22:26:39 63° 257° (WSW) 673 2.0 -10.7°
Drops below altitude 10° 22:30:48 10° 338° (NNW) 1,926 4.1 -11.6°
Sets 22:32:57 0° 341° (NNW) 2,815 4.9 -12.0°
